Wind_Speed
80 81 83 87 92 96 97 95 93 93 95 96 95 94 92 92 92 93 95 99 102 102 98 95 87 83 84 84 84 87 89 89 88 89 91 88 85 82 80 79 76 73 72 73 73 71 70 69 69 68 67 67 67 66 65 64 62 61 60 59 57 56 56 56 55 53 53 51 48 45 45 46 48 49 49 48 47 48 46 45 45 45 43 41 42 44
78 80 83 89 93 94 93 92 91 92 93 95 95 95 94 94 94 96 98 99 103 104 101 98 92 87 87 86 87 90 91 89 87 88 90 89 87 84 81 80 78 75 75 75 74 71 69 68 67 67 66 67 67 67 66 65 64 63 61 60 58 56 56 55 54 53 53 51 49 47 46 48 50 50 49 48 47 48 47 46 46 44 42 41 42 44
75 78 85 90 89 88 89 90 91 93 94 95 95 95 94 95 96 98 100 101 105 105 101 100 95 90 90 90 90 92 92 90 88 87 88 88 88 85 82 81 79 78 77 77 74 71 69 67 66 66 65 66 67 67 67 66 65 63 61 60 59 59 58 57 56 55 53 52 51 50 49 51 51 51 50 49 48 49 48 47 46 44 42 42 43 45
70 76 83 85 83 84 86 89 90 91 93 94 95 95 94 95 98 98 102 105 107 106 101 100 97 91 92 93 93 94 93 90 89 88 88 88 87 85 83 81 80 80 79 78 75 72 70 68 66 65 65 66 67 66 66 65 64 63 62 61 60 60 60 60 59 57 55 54 54 52 52 53 53 52 51 50 50 50 49 48 47 45 43 43 44 45
65 73 78 77 78 81 84 86 88 89 90 92 93 94 93 97 99 98 102 106 107 105 101 100 98 92 91 95 96 97 96 93 91 90 89 89 88 84 82 82 81 81 80 79 77 75 72 69 66 65 65 66 66 65 65 65 64 63 62 62 62 61 61 60 59 57 56 55 55 54 54 54 54 53 52 52 51 51 50 49 48 46 44 44 45 45
57 67 70 70 73 76 79 81 84 86 88 90 91 93 94 98 100 99 101 106 107 104 100 100 100 94 92 96 98 100 100 97 94 93 91 90 89 86 83 82 81 80 81 80 78 77 74 71 68 67 66 66 64 64 64 64 63 63 63 62 62 63 62 59 56 55 56 56 56 56 55 55 55 54 53 52 52 52 51 50 48 47 46 45 45 45
51 59 62 64 68 70 72 75 80 84 85 86 88 92 95 97 99 100 100 103 104 101 100 102 101 94 94 97 98 101 103 100 97 96 93 91 90 88 84 82 80 79 81 81 79 78 76 73 71 68 67 65 64 63 63 62 62 61 61 61 62 63 61 57 55 55 56 56 57 56 54 54 55 54 53 52 52 52 51 50 48 48 47 45 44 44
50 54 56 58 61 63 66 70 76 78 76 77 84 89 91 92 95 97 98 100 100 99 101 104 101 94 93 96 98 101 104 102 99 97 94 92 91 89 86 82 79 78 79 80 79 78 76 74 72 70 69 67 65 65 63 61 61 61 60 60 62 62 58 55 55 55 55 55 56 54 54 55 55 54 53 53 53 53 51 50 49 48 47 45 44 44
49 51 52 53 55 57 60 65 70 71 68 70 78 82 82 85 89 93 96 97 97 99 102 104 102 95 90 94 99 101 103 103 100 98 95 93 91 89 86 82 79 77 77 78 78 78 77 74 72 72 70 70 69 66 63 62 62 61 60 62 62 60 56 55 56 54 54 55 55 55 55 56 55 54 53 53 53 52 51 50 49 48 46 45 44 45
46 48 50 51 51 53 54 58 61 63 64 67 73 74 74 76 81 86 91 94 97 99 99 99 102 95 88 94 102 103 103 102 101 99 96 94 93 89 87 84 80 77 77 77 77 77 77 75 73 73 72 72 71 68 65 64 63 62 62 63 62 59 56 56 55 52 53 56 56 55 55 55 55 53 52 52 52 51 50 49 48 47 46 45 45 45
42 44 47 50 51 50 50 52 54 56 59 63 68 71 72 72 74 79 84 89 94 94 91 93 99 97 89 94 103 105 103 101 99 100 98 96 95 92 89 86 83 80 79 78 77 77 76 75 75 75 74 73 72 69 66 65 64 63 63 64 62 59 58 57 54 52 52 55 55 55 55 54 53 51 51 51 50 50 49 49 48 47 46 46 45 46
37 39 42 46 48 49 48 48 50 52 54 58 63 66 70 71 73 76 77 81 86 84 82 88 97 100 93 93 102 106 103 100 99 100 100 99 97 95 93 90 86 83 81 80 78 77 75 75 75 75 74 73 71 69 67 66 65 64 65 64 62 60 59 57 55 52 51 53 54 54 54 52 51 50 50 50 49 49 49 49 49 48 47 46 46 47
33 35 37 41 45 47 46 47 48 49 50 53 56 60 64 67 70 73 73 75 76 72 76 85 93 100 97 95 102 107 104 102 100 99 99 99 98 97 95 92 88 84 82 81 80 77 75 74 73 72 72 71 70 68 68 67 66 65 65 65 64 62 59 57 55 52 51 52 54 54 53 52 51 50 50 50 49 49 49 50 50 49 48 47 47 47
29 31 33 36 40 43 44 45 47 47 47 48 50 53 57 59 63 66 68 70 70 68 75 83 89 98 100 96 100 103 103 103 101 99 98 98 99 98 97 95 91 87 84 82 80 78 76 73 72 71 70 70 69 69 69 68 66 65 65 66 66 64 60 58 55 51 50 52 53 53 53 52 51 50 50 50 50 50 50 51 51 50 49 48 47 47
25 27 29 31 35 37 39 42 45 44 43 45 48 49 50 52 57 60 63 66 68 71 77 82 87 94 97 96 96 98 101 103 101 98 98 98 99 100 99 97 94 90 86 83 81 78 76 73 72 70 69 68 68 69 69 68 67 66 65 68 69 65 61 59 55 52 51 52 53 53 53 52 52 51 51 51 51 52 52 52 51 50 50 49 48 47
22 23 25 27 30 33 35 37 40 40 40 43 47 47 47 49 53 55 57 61 67 73 76 79 84 90 93 94 92 93 98 102 101 98 99 99 99 102 103 101 98 94 89 84 80 78 76 74 71 69 67 65 66 67 67 67 67 66 67 71 70 65 62 59 56 53 52 52 53 54 54 54 53 53 53 53 53 53 53 52 52 51 50 49 49 48
21 21 22 23 26 29 31 33 35 36 37 39 42 44 46 48 48 49 51 57 64 68 70 73 80 86 90 90 87 87 94 102 102 99 100 101 101 103 106 105 101 97 91 84 79 77 75 73 70 68 65 64 64 64 64 64 64 66 69 71 69 65 62 60 57 55 54 54 55 55 56 56 55 55 54 54 53 54 54 53 52 50 50 49 49 49
20 19 20 21 22 24 27 28 31 32 33 34 36 39 44 45 44 45 49 55 59 61 64 70 77 83 86 86 83 83 91 101 103 100 101 104 104 105 107 106 103 97 91 84 78 76 74 72 69 66 64 63 62 63 62 62 64 67 68 68 66 64 62 59 58 56 55 55 56 57 57 56 56 55 54 53 53 53 53 52 51 50 49 49 48 48
20 18 18 18 19 20 22 23 26 28 30 31 32 34 39 41 42 44 48 52 54 55 61 67 73 79 81 81 80 81 90 101 103 101 103 105 107 107 107 105 102 97 90 84 78 75 73 70 67 65 63 63 63 63 63 64 65 66 65 64 63 62 60 58 56 55 54 55 57 57 56 56 55 54 53 53 52 52 51 50 49 49 48 47 47 46
20 18 17 17 18 18 19 20 22 24 26 28 29 31 34 36 38 42 45 48 49 52 57 62 67 74 75 75 78 81 89 98 102 102 104 106 108 109 107 104 100 96 90 85 79 76 73 70 67 65 64 63 63 64 64 64 64 62 60 59 59 57 55 54 53 52 53 55 55 55 54 53 52 51 50 50 50 49 48 48 47 46 46 45 45 43
22 20 18 17 17 17 17 18 19 21 22 24 26 28 30 32 35 38 41 43 45 48 52 56 62 68 69 70 74 79 86 94 99 101 104 106 108 109 106 101 98 95 91 86 81 77 74 70 67 65 64 64 64 65 65 64 61 59 56 55 54 52 51 50 50 51 51 52 51 50 50 49 48 47 47 47 47 46 45 44 44 44 43 43 42 40
24 22 20 18 17 17 17 17 18 18 19 21 22 24 26 28 31 34 36 37 40 44 48 53 58 61 63 67 71 76 82 90 95 98 102 106 107 107 104 99 95 94 92 86 81 78 75 72 68 66 65 65 64 64 64 62 60 57 53 52 51 49 48 47 47 47 47 46 46 45 45 44 44 43 44 43 43 41 41 41 41 41 41 41 39 37
25 23 22 21 19 17 16 16 16 17 17 18 19 20 23 25 28 31 32 33 36 40 45 49 52 55 58 64 69 73 79 86 90 94 98 102 103 103 101 97 93 92 90 86 82 78 75 72 69 67 66 64 63 63 63 61 58 55 53 51 49 47 46 44 44 43 43 42 42 42 41 40 40 41 40 40 39 38 38 38 38 39 39 37 35 33
24 23 23 22 20 18 16 15 15 15 15 16 16 17 19 21 23 25 28 30 33 37 40 43 46 49 53 61 69 73 76 81 85 90 94 98 100 99 99 96 92 90 89 86 82 79 76 74 72 69 66 63 62 62 61 59 56 54 52 50 48 46 45 43 43 42 41 40 40 40 39 39 38 38 37 36 36 35 35 35 36 35 34 32 31 30
24 21 21 21 19 17 16 14 13 13 13 14 14 14 16 18 19 22 26 30 32 34 36 38 41 45 50 60 68 71 73 77 82 88 92 95 97 97 97 95 91 89 87 85 82 80 78 76 74 71 67 64 62 61 59 57 55 53 51 49 48 47 45 44 44 43 42 41 41 40 39 38 36 35 34 34 34 33 34 34 33 32 30 29 29 29
24 22 21 19 17 15 14 13 12 11 11 11 11 12 14 16 18 21 25 29 32 33 35 38 41 45 51 59 63 67 71 76 82 85 88 91 94 95 95 93 91 88 87 85 83 81 79 78 75 72 69 65 63 61 59 56 54 53 51 49 47 46 46 46 45 43 43 42 41 41 40 37 34 33 33 33 33 33 33 33 31 30 29 28 29 30
23 22 21 19 17 14 13 11 9 8 8 9 8 8 11 15 17 20 23 27 30 33 37 41 44 47 51 54 57 61 66 70 75 81 84 87 91 92 92 92 91 88 86 84 84 83 81 78 74 71 69 67 63 61 58 56 54 52 50 48 46 46 46 46 44 43 43 42 42 41 39 36 33 33 33 33 33 33 32 31 30 29 28 28 29 30
22 20 19 19 16 13 11 9 7 5 5 6 5 5 9 13 16 19 22 26 30 35 38 40 42 45 47 48 50 56 60 62 68 75 81 85 89 90 91 91 90 88 85 84 84 83 81 78 74 72 70 67 64 61 58 56 54 52 49 47 46 46 46 44 43 42 42 42 42 41 39 35 33 33 33 33 33 32 30 29 28 28 28 28 30 31
21 20 19 18 16 12 10 8 5 2 2 5 7 7 8 12 16 19 22 26 30 33 34 35 36 39 43 45 48 52 55 58 64 71 76 81 86 89 90 91 90 87 84 83 83 83 81 78 74 72 70 67 64 61 58 56 53 51 49 47 46 46 45 43 42 41 41 41 41 41 39 36 34 33 33 33 33 31 29 28 28 28 28 29 31 31
20 19 18 17 16 13 12 10 7 4 4 6 9 10 10 13 17 20 23 26 28 29 29 30 31 35 39 42 45 49 53 57 61 66 71 77 83 88 91 91 90 87 84 83 83 82 81 78 74 72 70 67 64 61 59 56 53 51 49 47 46 45 44 42 41 40 40 41 41 41 38 36 34 34 34 33 32 30 28 28 29 30 30 31 32 33
19 20 18 17 16 15 15 14 11 9 10 10 9 11 13 14 16 18 21 24 25 26 27 28 30 33 36 39 42 46 51 54 58 63 69 74 81 88 90 91 90 88 85 83 82 81 80 78 76 73 70 67 64 62 59 56 54 51 49 47 46 45 44 43 41 40 40 41 41 39 37 36 35 36 35 34 33 31 30 30 32 33 33 33 34 34
18 19 19 17 16 15 15 15 13 12 13 14 13 13 14 15 15 17 18 20 21 24 26 28 30 33 36 39 42 45 48 52 57 64 69 74 82 88 90 91 90 88 86 84 81 80 79 78 77 74 70 67 65 63 59 57 54 51 49 47 47 47 45 43 41 40 40 40 40 38 37 36 36 37 37 36 35 34 33 34 35 36 35 35 35 35
16 17 17 16 14 13 13 15 14 13 15 16 16 17 17 16 15 16 16 17 19 22 24 25 26 29 32 37 40 44 48 52 57 64 69 75 83 88 90 90 90 89 87 85 82 80 79 79 78 75 72 69 66 63 60 57 55 51 49 48 48 48 46 43 42 41 40 39 39 38 37 36 37 38 38 38 37 36 36 36 37 38 38 37 37 36
13 14 15 14 13 12 12 14 14 14 16 16 17 18 20 19 16 15 15 16 17 19 21 22 24 26 30 35 39 43 48 53 58 64 70 76 83 88 90 90 90 89 88 85 83 81 80 79 79 77 74 71 68 64 61 57 54 52 51 50 49 47 45 43 42 40 39 39 39 38 37 36 37 38 39 38 38 38 38 39 40 40 39 38 38 38
11 12 13 12 11 10 10 12 14 15 17 19 18 18 20 21 18 15 16 17 18 19 20 20 22 25 28 32 37 44 49 54 59 65 71 76 82 87 89 89 89 89 88 87 85 82 80 79 78 77 75 72 68 63 58 54 52 51 51 49 47 45 43 42 41 39 39 38 38 37 36 35 36 38 39 38 38 39 40 40 41 41 41 40 40 39
10 9 10 10 9 9 9 11 14 17 19 21 21 20 21 22 21 18 19 21 22 23 22 21 21 21 25 30 36 43 50 55 60 66 71 75 80 85 87 88 89 89 89 88 85 82 80 79 77 77 75 72 67 61 56 53 52 51 51 49 46 44 43 41 40 39 38 38 37 37 36 36 37 38 39 39 39 40 40 41 41 42 42 41 40 39
12 7 8 9 10 11 11 12 17 21 22 23 24 23 24 25 24 23 24 25 25 26 27 27 23 17 22 31 38 44 49 54 59 65 69 73 78 83 86 88 88 89 89 87 86 84 81 78 76 75 74 70 66 61 57 55 53 51 50 48 46 44 43 41 40 39 38 38 38 37 37 37 38 40 40 40 40 40 41 41 41 41 42 41 39 39
13 7 6 9 11 13 13 14 18 23 25 25 24 24 25 27 28 26 26 27 28 27 28 27 21 16 21 31 38 43 48 51 56 62 67 72 78 83 86 87 88 88 87 87 86 84 81 78 75 72 70 68 64 61 58 55 51 49 47 46 45 43 42 41 40 39 39 38 38 38 37 38 39 41 41 40 40 40 40 40 40 40 40 40 39 40
13 7 6 10 11 13 14 15 18 22 25 25 24 24 25 27 28 28 27 28 28 27 25 22 20 21 25 30 35 40 44 48 53 59 66 71 76 82 85 86 87 87 87 86 85 83 81 78 74 70 67 65 63 60 57 53 49 47 45 44 44 42 41 40 40 40 40 39 39 39 39 39 41 41 41 40 39 39 39 39 39 39 39 39 40 41
12 7 4 10 12 14 15 15 16 20 23 23 24 25 25 26 27 27 27 28 28 27 25 20 20 24 28 31 35 39 42 46 51 58 64 67 72 79 84 85 85 85 85 85 84 82 81 77 73 69 66 64 63 60 57 53 50 47 45 44 42 41 40 40 41 41 41 40 40 39 40 41 42 42 41 40 40 40 40 39 39 39 38 39 39 38
11 7 3 10 13 16 18 18 19 23 24 25 25 25 25 27 27 26 26 28 29 29 27 24 24 27 29 32 35 38 41 45 50 55 61 65 70 77 82 84 86 86 85 84 83 81 79 76 72 69 67 65 64 61 58 55 51 48 45 42 40 39 41 42 43 43 42 41 41 41 42 42 43 44 43 42 42 42 41 40 40 38 36 35 36 36
9 6 3 11 13 17 20 23 25 26 27 28 28 26 26 27 27 27 29 30 32 32 31 30 30 30 30 31 33 36 40 44 48 52 58 64 69 74 79 84 86 86 84 83 82 81 78 76 73 70 68 66 64 61 58 55 51 48 44 40 39 40 42 43 44 44 44 43 43 43 43 43 44 44 43 41 41 42 42 41 40 37 33 33 36 38
5 4 4 11 14 18 23 26 28 27 28 31 31 29 28 29 30 31 32 33 33 33 32 31 29 29 31 32 33 35 38 41 44 49 55 61 66 71 76 80 82 83 83 82 82 80 78 76 74 72 70 66 63 60 57 53 50 47 42 40 40 40 40 42 44 45 44 44 45 44 44 43 43 42 41 40 41 42 42 41 40 37 34 35 38 40
2 3 6 10 15 19 23 27 29 29 30 31 31 31 33 33 32 32 31 32 31 29 29 30 29 29 30 28 28 34 38 39 41 46 51 57 63 68 72 75 78 80 81 81 80 79 77 76 75 73 69 65 62 59 56 53 50 46 42 40 38 36 38 42 44 44 45 45 45 44 43 43 43 43 42 41 43 44 43 41 39 36 34 35 38 39
4 4 8 12 16 20 22 25 28 31 33 32 32 34 36 34 32 31 30 30 29 26 28 30 28 28 30 28 28 34 37 37 40 44 48 53 59 63 67 71 73 76 78 78 78 77 76 76 74 71 68 64 60 58 56 54 51 47 43 39 35 33 37 42 42 42 44 45 43 43 43 42 43 44 43 43 45 46 44 41 39 36 34 36 39 40
6 6 10 15 18 21 23 24 26 28 30 31 33 37 38 36 34 32 30 30 29 28 30 29 26 30 35 34 33 35 37 38 40 43 46 50 54 58 62 65 68 71 73 74 74 74 74 73 71 69 66 63 60 58 55 53 50 47 42 39 36 35 36 40 41 41 41 41 41 40 40 41 42 42 42 42 44 44 42 39 37 35 33 35 38 40
7 7 11 17 21 21 22 23 25 27 27 28 32 37 38 37 36 35 35 34 30 31 33 31 30 35 38 37 35 36 39 41 41 42 45 48 50 53 56 60 63 66 68 69 70 70 70 70 69 67 65 63 61 59 55 50 48 47 45 44 45 43 40 41 43 44 44 44 44 42 39 39 40 40 39 40 42 42 40 39 38 35 32 32 34 36
9 9 13 18 22 22 21 22 26 28 29 31 34 36 37 38 37 38 40 36 33 35 36 34 36 40 40 39 40 39 41 44 43 42 43 44 46 49 52 55 59 62 62 62 63 65 66 67 66 66 65 62 60 58 55 50 48 50 51 52 54 53 49 48 49 51 53 52 50 46 41 38 37 37 37 39 41 41 39 39 39 37 34 32 31 34
11 12 15 18 20 22 23 24 26 29 30 33 37 38 37 38 39 41 41 38 39 41 39 36 40 42 38 38 41 41 42 44 43 42 42 41 42 44 47 51 54 57 58 55 54 58 63 64 64 63 61 59 58 57 54 51 51 53 55 55 56 56 54 52 53 54 55 54 51 48 46 41 36 35 36 38 39 39 38 39 38 37 34 33 33 35
13 16 17 18 19 22 25 27 27 29 30 32 38 41 40 39 40 42 42 41 44 44 38 36 41 40 34 34 38 41 42 39 38 42 45 44 43 44 45 47 49 52 53 50 48 52 58 61 62 61 59 57 57 56 54 52 53 55 55 55 56 55 52 52 53 53 53 52 50 49 49 47 44 41 40 40 40 38 38 39 39 37 37 38 39 41
15 17 18 19 21 23 26 27 28 28 28 30 37 43 44 41 42 43 43 43 45 44 40 40 43 40 36 35 36 38 36 30 33 44 48 45 45 46 47 49 50 50 51 49 47 49 54 57 59 60 58 58 58 56 53 52 53 54 55 57 59 57 52 50 52 52 52 52 51 49 49 50 50 49 48 46 46 44 43 42 41 41 42 43 43 44
Wind_Direction
246 246 244 243 241 240 241 241 240 240 240 240 240 239 237 236 235 235 235 235 236 235 233 232 227 222 223 223 224 227 230 231 232 234 234 233 231 229 229 230 230 231 232 233 233 232 233 234 237 239 239 240 242 244 246 246 246 245 245 245 245 246 248 250 252 254 255 257 260 264 267 269 271 273 275 277 279 281 282 285 289 293 293 290 289 290
244 244 244 243 242 241 242 242 242 241 241 240 240 239 238 237 235 235 235 235 236 235 234 232 227 223 223 223 223 226 228 230 231 233 235 234 232 229 228 229 230 230 231 233 233 233 234 235 236 237 238 240 242 244 245 246 247 246 246 246 246 248 249 250 251 252 254 256 259 263 266 268 270 272 275 277 278 280 282 285 289 292 290 288 289 289
244 243 243 243 243 243 243 243 242 241 241 241 240 239 238 237 236 235 235 235 235 235 233 232 228 223 223 223 223 225 227 228 229 232 235 235 233 230 228 228 229 230 231 233 233 233 234 234 235 236 237 239 241 244 246 247 249 250 249 249 249 249 249 249 250 252 254 257 260 263 264 265 268 270 273 275 277 279 282 286 290 290 288 288 289 290
246 244 243 244 244 244 243 243 242 241 241 241 241 240 239 238 237 236 236 236 236 235 232 232 230 223 222 223 223 225 226 227 228 229 232 235 233 230 228 227 228 229 230 232 233 233 233 233 234 235 236 238 240 242 245 247 248 250 250 250 250 250 249 249 250 252 256 258 260 262 262 264 266 268 271 274 276 279 282 286 289 288 287 288 289 290
249 247 247 247 246 245 244 243 243 242 241 241 240 240 239 239 238 236 236 236 236 235 233 232 230 225 222 223 223 225 225 225 226 227 229 233 234 231 228 227 227 228 229 231 231 232 233 233 233 234 235 237 238 240 242 243 244 245 246 247 248 249 249 250 251 253 255 257 259 260 261 263 265 267 269 272 275 278 281 285 287 286 286 288 289 288
251 250 250 250 248 246 245 244 244 243 241 240 240 240 239 238 238 237 236 236 236 236 234 233 230 225 223 223 223 224 225 223 224 225 226 229 233 232 228 226 226 228 229 230 230 231 232 232 232 233 234 236 237 239 240 241 242 243 245 246 248 249 251 252 254 254 255 255 257 258 260 262 264 266 269 272 275 278 281 284 285 284 286 287 287 286
255 252 252 251 249 248 247 245 245 244 242 241 240 239 238 237 237 237 236 236 237 236 235 234 231 225 223 224 223 223 225 223 222 224 225 226 230 231 229 226 225 226 228 230 230 230 231 231 232 233 234 236 237 238 239 240 241 242 244 245 247 249 252 254 254 254 254 254 256 258 260 262 265 267 270 273 275 278 281 282 283 283 285 286 285 284
259 256 254 251 250 249 248 247 246 246 244 242 242 241 239 238 238 238 237 237 237 236 235 235 233 227 223 224 224 223 224 224 222 223 224 225 228 230 230 226 224 225 227 229 230 230 230 230 232 233 234 235 235 236 237 239 240 241 242 244 246 249 252 253 253 252 253 255 257 259 261 264 266 269 271 273 275 277 279 280 281 282 283 284 283 283
263 261 259 256 252 250 248 246 247 248 247 245 244 243 241 239 239 239 238 238 236 235 235 235 235 229 222 224 226 224 224 223 222 222 223 224 226 229 230 228 225 224 226 228 229 229 230 229 230 232 233 234 234 235 235 237 238 240 241 243 246 249 250 251 251 252 254 255 257 260 262 264 266 269 271 273 274 276 277 278 279 281 282 282 282 282
265 263 262 261 258 253 250 248 246 247 246 245 245 245 243 240 238 237 237 237 236 235 233 234 236 231 222 223 227 225 224 222 222 222 221 223 225 226 229 229 226 224 225 226 227 228 228 228 228 230 231 232 234 234 235 236 238 240 242 244 246 248 248 249 250 251 252 254 257 259 261 263 265 268 270 271 273 274 275 276 278 280 281 281 282 282
265 263 262 262 261 258 254 251 249 246 244 243 243 243 243 240 238 236 235 235 235 233 231 232 235 233 222 221 227 227 224 222 220 221 220 221 223 224 226 227 226 223 224 225 226 226 227 227 227 228 229 231 233 234 234 236 238 240 242 244 246 247 247 248 250 250 251 253 256 258 260 261 264 267 268 269 270 272 274 276 277 279 280 280 281 282
266 264 262 261 261 261 258 255 251 248 244 242 241 241 240 239 238 237 235 234 233 231 230 230 233 233 224 218 224 227 225 222 220 219 219 219 221 223 224 225 225 223 223 223 224 224 225 226 226 227 229 230 232 233 234 236 237 239 242 243 244 245 246 247 248 249 250 253 255 257 259 261 263 265 266 267 268 271 273 275 277 278 279 279 280 281
268 264 262 260 261 261 260 258 255 251 247 244 242 240 239 238 237 237 236 235 233 229 228 228 229 231 226 218 220 224 223 222 220 218 218 218 219 222 223 224 224 223 222 223 223 223 223 224 225 226 228 229 231 233 234 235 236 238 240 242 243 243 244 245 247 248 249 252 254 257 258 260 261 263 264 266 268 270 272 275 276 277 277 277 279 281
271 267 263 260 258 258 258 257 256 253 250 248 246 243 240 238 236 235 235 235 234 228 226 227 226 228 227 221 219 221 222 222 220 217 217 217 218 220 222 223 223 223 222 222 223 223 222 223 224 225 226 227 228 230 232 234 235 236 238 240 242 242 242 244 245 246 247 250 253 256 257 259 260 261 263 266 268 270 272 274 275 275 275 276 278 280
274 270 266 263 260 258 256 255 255 254 251 249 248 245 241 239 237 234 232 230 230 227 225 225 224 225 226 223 219 218 220 221 220 216 216 216 216 218 220 222 222 222 221 221 221 222 222 222 222 223 224 225 226 228 230 231 233 234 236 239 241 241 242 243 244 245 247 249 251 253 256 257 259 261 263 266 269 271 272 273 273 273 274 276 277 278
280 273 268 265 263 261 258 255 255 253 250 246 246 246 243 240 237 233 230 228 226 225 224 224 224 223 224 224 219 215 217 220 219 216 215 215 215 217 219 220 220 221 220 219 219 221 222 221 222 222 222 224 225 227 229 230 232 233 235 238 240 241 242 243 244 244 245 247 249 252 254 257 259 261 264 266 269 270 271 271 271 272 273 275 276 277
291 282 273 267 263 262 261 259 257 254 250 246 244 244 244 241 236 232 230 228 226 224 223 223 223 224 224 223 219 214 215 218 218 215 214 214 214 216 217 218 219 219 219 218 217 219 221 221 221 221 221 223 224 226 228 229 231 232 234 237 240 241 242 242 243 243 244 246 249 252 254 257 260 262 264 266 268 268 269 270 270 271 272 274 275 276
304 294 284 276 269 264 262 260 259 257 254 250 244 241 241 240 237 233 230 228 227 224 222 221 222 224 224 222 218 213 213 217 217 213 213 213 214 215 217 217 218 218 218 217 216 217 219 220 221 221 221 222 224 226 227 227 229 230 233 236 239 241 242 243 244 245 246 248 249 251 254 257 260 262 264 265 266 267 267 268 270 270 271 273 274 276
316 307 298 289 282 273 267 262 259 257 255 252 248 242 240 239 237 234 231 229 226 223 221 220 220 223 224 221 217 212 211 215 215 212 212 212 213 214 216 216 217 217 217 216 216 216 218 219 219 220 220 222 224 226 226 227 228 230 233 236 238 240 242 243 245 246 247 247 249 251 254 257 260 262 263 264 264 265 266 267 268 270 271 272 274 276
328 320 311 303 295 286 276 268 261 257 253 251 248 244 241 238 234 232 231 229 226 223 221 220 220 222 222 219 216 213 211 214 214 211 210 212 212 213 214 215 215 215 215 215 214 215 217 218 218 218 220 221 223 225 226 228 229 231 233 235 237 240 242 243 245 245 245 246 249 251 254 256 259 260 261 262 262 263 264 266 267 269 271 272 274 276
338 330 323 314 306 298 287 276 267 260 255 251 247 244 241 238 233 231 230 228 226 223 222 220 220 220 219 216 216 214 212 214 214 211 210 211 212 212 213 213 213 213 213 213 213 213 215 216 216 217 218 220 222 225 226 228 229 231 232 234 236 239 240 241 241 242 243 245 248 250 253 255 256 257 258 259 260 261 263 265 267 269 270 272 274 276
343 337 332 326 317 307 295 284 274 266 259 253 248 244 240 236 233 229 226 225 224 222 220 219 219 218 215 214 214 213 213 214 213 211 210 210 211 212 212 212 211 212 212 211 212 212 213 214 214 215 217 219 222 225 228 229 230 231 232 234 235 236 237 238 238 240 242 244 247 248 250 252 253 254 255 257 259 261 263 264 266 268 270 272 274 276
345 343 339 333 326 315 302 290 280 271 263 255 248 243 238 235 233 229 223 220 219 220 219 218 218 216 213 213 213 211 212 213 213 212 210 211 211 211 211 210 210 211 210 210 210 211 213 213 213 214 216 218 220 224 227 229 230 231 231 232 233 233 234 235 237 239 241 242 243 245 247 249 250 252 254 257 259 261 263 264 266 268 270 272 274 275
346 346 341 335 330 321 310 300 288 277 268 259 249 242 237 232 231 228 221 216 214 215 217 217 217 214 212 213 212 209 209 211 212 211 210 210 211 211 210 209 209 209 209 209 209 210 212 213 213 213 214 216 218 222 226 228 229 229 230 230 231 232 232 233 235 237 238 240 241 243 245 247 249 251 254 257 259 261 262 264 265 267 269 270 270 271
346 347 343 336 332 325 317 308 297 285 273 260 247 237 232 226 221 218 214 210 208 209 210 210 212 212 212 214 213 209 207 207 209 210 209 208 209 210 209 208 207 208 208 207 208 209 210 212 213 213 213 214 217 221 224 226 227 228 229 229 229 231 232 233 235 236 237 239 242 243 245 246 249 252 255 257 259 260 261 263 265 266 266 267 268 269
347 350 347 341 337 333 325 315 303 291 275 259 243 233 227 218 210 207 207 204 201 199 200 201 204 208 211 214 212 209 206 205 205 207 207 207 207 208 207 206 205 206 207 206 206 208 210 211 213 213 213 214 216 219 221 224 225 227 228 228 228 230 232 234 235 236 237 240 242 243 244 246 249 252 254 256 258 259 261 263 264 264 264 264 267 269
351 354 352 348 346 345 339 328 315 299 274 249 231 226 222 210 199 197 199 199 196 194 194 195 198 203 209 213 212 209 208 206 204 204 204 205 205 206 206 205 204 205 205 205 205 207 209 210 211 213 214 215 215 217 219 221 223 225 226 227 228 229 231 233 234 235 237 240 241 243 244 245 248 251 254 257 258 260 261 263 262 262 263 265 268 271
359 360 0 359 357 358 356 346 332 308 264 222 187 189 208 200 190 188 190 192 193 193 193 194 195 199 205 210 210 209 208 206 204 203 202 202 202 203 204 204 203 204 204 204 205 207 209 209 210 212 214 215 216 217 218 220 222 224 225 225 226 228 230 231 232 233 236 239 240 242 243 244 247 252 256 258 259 260 261 261 261 261 263 266 269 271
6 7 10 13 12 13 17 14 3 341 209 170 142 141 173 181 177 179 184 189 192 193 192 193 194 198 202 205 207 206 205 204 203 202 201 200 199 200 201 202 202 202 203 204 204 206 208 209 209 211 214 215 216 216 218 220 221 223 224 225 225 227 229 230 231 233 236 238 240 242 243 244 247 252 256 258 259 259 260 260 260 263 266 269 270 273
13 17 20 24 28 33 41 45 45 64 109 125 129 134 148 164 171 176 182 186 189 189 188 188 192 197 201 203 204 203 202 201 200 199 200 199 198 198 199 201 201 200 202 203 204 205 207 208 209 210 212 213 215 216 218 219 221 223 224 224 225 227 229 230 231 232 235 238 240 242 242 243 247 251 255 257 258 259 259 259 262 266 269 272 272 273
22 28 29 33 40 50 56 58 61 75 91 98 112 130 140 152 165 174 180 184 185 184 183 184 188 194 198 200 201 201 199 197 195 195 197 197 197 197 198 199 199 199 200 202 203 205 206 208 208 209 211 212 213 215 217 218 220 221 222 223 224 227 228 229 230 231 234 238 240 242 243 244 247 250 253 256 258 259 259 261 265 269 271 274 275 273
30 37 39 41 49 59 67 71 75 85 96 101 109 121 130 140 153 164 173 178 179 179 180 182 186 192 195 195 196 196 195 194 191 191 193 195 195 196 197 198 198 198 199 200 202 203 205 207 208 210 210 211 213 214 216 217 219 220 221 222 224 226 228 229 230 232 235 238 241 243 244 245 247 250 252 254 257 259 260 263 266 270 273 275 275 274
34 45 48 50 56 66 77 82 87 98 108 115 121 124 125 129 140 153 163 169 172 174 177 180 185 190 192 193 192 191 191 191 189 189 191 192 193 195 196 197 197 197 198 200 201 202 204 206 208 209 210 211 212 213 214 216 218 220 221 222 223 225 227 229 231 232 235 239 242 243 244 245 247 249 251 253 256 260 262 263 266 270 273 274 274 275
30 47 52 56 62 73 85 93 100 109 115 119 124 128 128 125 129 144 153 157 161 165 169 173 177 183 188 190 187 186 188 189 188 188 190 191 192 194 195 196 197 197 198 199 200 201 203 204 206 208 210 211 211 212 212 214 216 219 221 223 224 226 228 230 232 234 236 239 242 244 245 246 248 250 252 254 257 260 261 263 266 270 272 273 274 276
20 42 49 58 68 76 89 100 109 114 117 118 119 126 128 120 119 132 142 143 147 150 154 162 170 175 181 184 183 183 187 189 187 188 190 191 192 193 194 195 196 197 198 199 200 201 202 204 206 207 209 211 211 212 212 213 216 220 222 225 226 228 230 232 234 235 237 240 243 245 246 247 248 250 252 254 256 259 261 263 266 269 270 272 275 277
3 35 48 59 72 80 87 99 109 113 115 118 118 121 121 116 114 125 133 134 136 137 139 145 153 164 174 178 180 183 187 188 187 187 189 191 191 192 194 195 195 197 198 199 200 202 203 204 205 207 208 210 211 211 211 213 216 220 223 225 227 229 231 233 235 236 238 241 243 244 245 246 248 251 252 254 256 258 261 263 266 268 270 273 274 276
347 16 51 64 77 87 92 101 112 113 113 117 119 119 119 117 117 125 130 131 134 137 138 137 135 149 173 177 178 183 187 188 188 187 188 189 190 192 193 194 196 197 198 199 200 202 203 205 206 207 208 209 209 209 210 212 215 219 223 226 228 230 232 233 235 237 239 241 243 244 245 247 250 252 253 255 256 258 261 263 266 268 270 271 273 276
347 2 56 76 85 94 101 110 119 120 120 121 122 123 124 122 122 128 132 134 138 139 138 136 135 149 173 178 179 182 185 187 187 187 187 188 189 191 193 194 196 197 198 199 201 202 204 205 206 207 208 209 209 209 210 211 214 218 223 226 229 231 232 234 236 238 240 243 244 245 247 248 250 252 253 255 256 258 261 263 264 266 268 271 274 278
345 350 68 93 98 106 115 124 129 129 128 127 126 125 127 127 128 132 135 137 139 136 132 136 147 158 167 174 178 181 183 185 186 186 188 189 190 190 192 194 195 197 199 200 201 202 204 205 205 206 207 208 209 210 210 211 214 218 222 226 229 231 233 236 238 240 242 244 246 247 249 250 251 253 254 255 256 257 259 261 264 266 269 273 277 278
342 334 99 116 118 124 131 137 137 134 131 129 128 127 129 132 133 135 136 137 136 133 130 135 149 159 166 172 175 177 181 183 184 186 188 190 190 190 192 194 195 197 199 200 201 203 204 204 205 205 206 208 209 209 210 210 212 216 220 225 228 232 236 238 241 243 245 248 250 252 252 252 253 254 255 255 255 257 258 261 264 267 271 276 277 274
345 329 143 135 132 135 139 140 137 134 132 130 129 129 131 134 134 135 137 138 136 134 137 143 151 159 167 172 174 176 179 181 183 185 187 189 190 190 192 194 195 197 198 200 201 203 204 204 204 204 206 207 208 208 209 209 211 214 218 223 228 234 238 241 243 246 250 253 255 255 255 255 256 256 256 255 256 257 259 261 264 268 274 276 271 269
350 336 155 144 140 139 141 142 140 138 137 133 130 130 133 135 135 137 139 139 138 138 142 149 154 160 165 169 173 176 179 181 183 184 186 188 190 191 193 195 196 197 198 199 201 202 203 204 204 205 206 207 207 208 208 209 211 213 217 221 227 233 239 244 248 252 255 258 259 258 258 258 258 258 257 257 257 257 258 260 264 268 268 264 263 269
346 322 187 158 147 145 147 147 145 143 141 138 135 136 138 138 139 140 139 138 138 138 141 147 153 160 164 167 172 176 178 180 183 184 186 188 190 192 194 196 197 198 198 199 201 202 203 204 204 205 206 207 207 208 208 210 213 215 217 222 228 235 244 249 252 256 260 263 263 262 260 260 260 259 258 258 257 257 258 261 265 267 263 258 262 269
288 260 213 180 158 153 155 155 151 149 147 144 143 144 145 144 144 142 139 137 136 137 141 146 151 158 164 167 173 176 176 177 180 184 187 189 191 192 194 196 197 198 199 200 201 202 203 204 205 206 207 207 207 208 209 211 214 216 219 224 230 237 244 248 252 257 264 268 267 264 261 260 261 260 259 258 257 258 259 262 264 265 263 263 266 269
236 217 218 201 173 161 162 163 163 162 158 155 153 151 149 148 146 143 142 142 141 143 148 151 155 162 166 167 169 173 173 174 178 183 187 190 192 193 194 196 197 199 200 201 202 203 204 205 206 207 207 208 208 209 210 212 213 213 216 222 229 234 239 246 252 258 265 270 270 265 261 260 261 261 260 259 258 259 261 263 263 263 262 263 265 268
235 201 213 209 188 174 171 172 173 173 168 164 161 156 153 153 150 149 150 150 150 154 158 159 165 169 166 162 163 167 170 172 174 179 184 188 191 192 194 196 197 199 200 202 203 204 205 207 207 208 208 208 208 209 211 214 215 214 211 214 221 228 236 245 251 254 258 262 265 263 260 260 261 262 262 260 259 261 261 261 262 263 262 262 263 266
241 202 209 212 204 196 190 182 179 177 174 171 168 163 160 159 157 157 158 156 157 162 162 161 164 165 161 158 158 162 166 168 171 175 180 183 186 189 192 194 196 198 200 202 203 205 207 208 208 209 209 209 210 210 210 212 215 214 210 208 212 217 226 237 243 245 245 246 249 253 258 260 260 261 261 259 259 260 260 258 259 260 261 262 263 262
245 215 215 217 216 214 207 194 187 182 177 175 174 171 168 165 162 163 163 162 164 166 164 161 160 161 159 157 156 160 164 166 167 169 173 176 180 184 188 191 194 196 198 200 203 205 207 208 209 210 211 211 211 211 211 212 215 214 210 208 209 211 216 225 232 235 235 237 239 244 253 259 259 258 258 258 257 256 256 257 257 257 259 263 264 261
245 225 218 220 222 219 212 204 197 189 183 181 181 181 178 172 168 168 168 169 170 168 166 165 163 160 159 159 157 158 162 165 165 167 169 171 175 179 183 187 191 193 195 197 201 204 206 207 208 210 211 211 212 212 213 215 216 215 213 212 211 210 212 219 227 232 234 236 238 241 247 256 260 259 256 254 254 252 253 255 257 258 261 266 266 264
241 231 221 219 223 220 214 213 207 196 189 185 184 185 184 179 174 173 174 175 174 171 169 170 167 161 157 159 160 159 160 164 167 169 170 172 175 178 181 183 186 190 193 195 197 200 203 205 207 208 208 208 210 211 212 213 213 214 215 215 213 211 213 219 226 231 234 236 238 240 246 253 261 262 259 256 254 253 253 256 258 260 263 265 264 263
235 236 227 219 221 222 220 219 214 206 200 192 185 185 187 184 180 180 180 179 176 174 172 170 166 161 159 161 163 160 159 166 173 173 173 176 179 182 184 185 185 188 190 192 194 197 201 204 205 206 207 207 209 210 210 210 210 211 213 214 213 212 214 219 225 230 233 236 237 239 244 251 257 261 263 264 264 263 262 263 264 266 267 267 266 268
Height
10460 10463 10468 10468 10463 10462 10465 10472 10482 10487 10490 10495 10502 10509 10519 10525 10531 10536 10534 10534 10533 10536 10548 10561 10583 10598 10598 10602 10606 10601 10599 10603 10612 10615 10618 10630 10643 10654 10662 10667 10673 10680 10684 10684 10685 10690 10694 10700 10706 10712 10717 10721 10725 10731 10735 10737 10740 10742 10744 10748 10751 10754 10756 10757 10760 10761 10762 10764 10767 10770 10771 10770 10769 10768 10769 10771 10772 10772 10774 10775 10775 10775 10775 10775 10775 10774
10448 10452 10453 10447 10444 10449 10457 10466 10472 10477 10481 10486 10490 10497 10505 10512 10520 10522 10520 10522 10519 10522 10537 10549 10567 10584 10588 10592 10595 10590 10590 10596 10607 10610 10612 10622 10634 10645 10655 10661 10668 10675 10676 10675 10680 10688 10692 10698 10703 10708 10712 10716 10720 10725 10728 10731 10733 10735 10740 10744 10747 10750 10751 10753 10756 10757 10758 10759 10763 10766 10767 10766 10764 10765 10766 10768 10769 10768 10770 10771 10771 10772 10771 10771 10771 10770
10437 10440 10434 10428 10434 10444 10450 10455 10460 10464 10469 10473 10478 10484 10493 10499 10505 10508 10507 10508 10503 10507 10526 10536 10550 10571 10577 10580 10583 10580 10582 10591 10601 10604 10606 10613 10623 10636 10647 10655 10662 10667 10669 10672 10679 10685 10689 10694 10699 10703 10708 10711 10715 10718 10722 10725 10727 10731 10735 10738 10742 10744 10746 10748 10750 10752 10754 10756 10758 10761 10763 10761 10760 10761 10762 10764 10765 10765 10766 10767 10767 10768 10768 10768 10767 10766
10429 10427 10419 10420 10431 10436 10438 10441 10445 10451 10456 10461 10466 10471 10482 10487 10488 10495 10496 10491 10489 10496 10515 10526 10536 10558 10568 10570 10574 10573 10577 10587 10594 10598 10601 10603 10613 10628 10641 10649 10655 10659 10664 10669 10675 10680 10684 10690 10695 10701 10704 10706 10709 10714 10718 10720 10723 10725 10728 10731 10735 10738 10740 10743 10745 10748 10751 10752 10753 10756 10757 10756 10756 10757 10759 10760 10761 10761 10762 10763 10763 10764 10764 10764 10763 10761
10420 10413 10409 10416 10423 10423 10426 10429 10432 10438 10443 10448 10453 10459 10471 10474 10472 10480 10481 10476 10478 10487 10505 10517 10524 10544 10558 10560 10563 10563 10568 10578 10585 10590 10594 10596 10604 10619 10632 10640 10647 10653 10658 10663 10669 10674 10680 10686 10692 10696 10698 10700 10705 10710 10713 10714 10717 10719 10721 10725 10728 10731 10734 10738 10741 10745 10746 10748 10749 10750 10752 10751 10751 10753 10755 10756 10757 10757 10758 10758 10759 10760 10760 10760 10759 10757
10409 10402 10401 10408 10410 10411 10414 10418 10420 10424 10428 10434 10441 10448 10455 10456 10455 10462 10466 10464 10467 10480 10498 10504 10508 10531 10547 10545 10548 10551 10554 10566 10575 10579 10587 10591 10596 10608 10622 10631 10640 10647 10651 10656 10663 10668 10675 10682 10687 10690 10692 10696 10702 10705 10706 10708 10711 10713 10715 10720 10723 10725 10728 10733 10737 10740 10741 10743 10743 10745 10747 10747 10747 10749 10751 10753 10753 10753 10754 10754 10755 10755 10755 10755 10754 10753
10396 10391 10392 10396 10397 10400 10404 10408 10408 10408 10414 10423 10431 10433 10435 10439 10441 10446 10453 10453 10458 10475 10488 10485 10491 10519 10533 10532 10539 10543 10543 10556 10566 10570 10579 10587 10589 10598 10611 10624 10633 10640 10644 10650 10656 10662 10669 10676 10681 10685 10689 10693 10697 10698 10699 10703 10706 10708 10711 10714 10717 10719 10723 10729 10733 10734 10736 10738 10738 10740 10742 10742 10743 10744 10747 10748 10748 10749 10750 10750 10751 10751 10751 10751 10750 10749
10383 10382 10383 10385 10388 10391 10395 10398 10395 10394 10406 10418 10419 10416 10420 10428 10431 10436 10442 10444 10452 10466 10470 10468 10479 10505 10523 10526 10531 10534 10535 10547 10559 10565 10576 10583 10586 10592 10603 10617 10627 10633 10639 10643 10649 10656 10663 10670 10676 10680 10684 10687 10688 10689 10693 10698 10700 10703 10706 10709 10711 10714 10720 10725 10726 10729 10731 10733 10733 10735 10737 10738 10738 10740 10742 10744 10744 10745 10746 10746 10746 10746 10746 10746 10746 10745
10372 10373 10373 10375 10379 10382 10385 10386 10385 10388 10400 10408 10404 10402 10410 10418 10421 10427 10430 10434 10442 10447 10451 10460 10467 10488 10516 10522 10518 10520 10526 10538 10551 10561 10572 10579 10583 10589 10597 10610 10622 10628 10632 10636 10642 10650 10656 10663 10669 10673 10677 10679 10679 10682 10688 10692 10693 10697 10702 10704 10706 10711 10716 10719 10720 10724 10727 10727 10728 10730 10732 10733 10734 10736 10738 10739 10740 10741 10741 10742 10742 10741 10742 10742 10742 10741
10365 10366 10365 10366 10368 10371 10374 10376 10378 10383 10390 10393 10390 10391 10399 10404 10409 10414 10416 10421 10426 10427 10440 10457 10458 10473 10505 10511 10502 10506 10514 10528 10544 10555 10567 10574 10578 10585 10591 10601 10614 10620 10623 10628 10634 10641 10647 10655 10661 10664 10668 10670 10673 10679 10683 10685 10688 10694 10697 10699 10702 10707 10711 10713 10715 10720 10721 10722 10724 10726 10727 10728 10730 10733 10734 10735 10736 10736 10737 10737 10737 10737 10737 10738 10737 10737
10358 10359 10359 10358 10358 10360 10363 10366 10369 10374 10378 10380 10379 10381 10385 10389 10395 10398 10402 10407 10408 10414 10436 10454 10452 10457 10483 10496 10490 10493 10505 10521 10537 10546 10558 10566 10569 10576 10582 10589 10602 10610 10614 10619 10624 10632 10639 10646 10651 10655 10660 10664 10668 10674 10678 10681 10686 10690 10692 10694 10698 10702 10704 10707 10711 10715 10716 10717 10719 10721 10722 10724 10727 10729 10730 10731 10732 10732 10733 10733 10733 10733 10733 10734 10733 10732
10352 10352 10353 10352 10351 10352 10354 10357 10360 10362 10366 10368 10369 10371 10373 10377 10382 10384 10390 10394 10395 10413 10435 10444 10440 10436 10456 10480 10480 10480 10496 10513 10525 10535 10547 10556 10560 10567 10573 10578 10589 10599 10605 10610 10616 10623 10630 10637 10643 10649 10654 10659 10664 10670 10675 10677 10681 10685 10687 10689 10693 10696 10698 10701 10706 10710 10712 10712 10714 10715 10718 10720 10723 10725 10726 10727 10727 10728 10729 10729 10729 10729 10729 10730 10729 10728
10346 10347 10347 10346 10346 10345 10347 10349 10350 10352 10356 10357 10359 10361 10362 10367 10371 10374 10382 10385 10392 10413 10424 10423 10422 10418 10432 10460 10464 10466 10485 10499 10511 10525 10538 10548 10554 10560 10565 10570 10579 10589 10597 10602 10608 10616 10623 10629 10637 10643 10649 10655 10661 10666 10669 10672 10676 10680 10682 10684 10687 10690 10693 10697 10702 10706 10708 10708 10709 10710 10713 10716 10719 10721 10721 10722 10723 10724 10725 10724 10724 10725 10725 10725 10724 10724
10341 10341 10341 10341 10340 10340 10341 10341 10340 10343 10348 10350 10351 10352 10354 10359 10362 10367 10374 10379 10388 10401 10403 10401 10404 10401 10411 10439 10451 10460 10476 10485 10498 10517 10530 10541 10548 10552 10556 10562 10570 10579 10588 10596 10602 10608 10616 10623 10630 10636 10642 10649 10655 10658 10661 10665 10670 10674 10677 10678 10679 10683 10689 10693 10697 10701 10704 10704 10705 10706 10708 10711 10714 10716 10717 10718 10719 10720 10720 10720 10720 10720 10720 10720 10720 10719
10336 10335 10335 10335 10335 10334 10335 10334 10333 10336 10340 10343 10343 10343 10347 10351 10354 10358 10364 10370 10376 10380 10380 10383 10388 10390 10403 10426 10443 10456 10468 10475 10488 10508 10521 10531 10538 10541 10545 10551 10559 10569 10579 10588 10596 10603 10611 10617 10622 10629 10637 10643 10648 10650 10654 10659 10664 10668 10671 10670 10672 10678 10685 10689 10693 10698 10700 10700 10701 10702 10704 10707 10709 10711 10713 10714 10715 10716 10716 10716 10716 10715 10715 10715 10715 10715
10333 10332 10331 10330 10329 10329 10329 10329 10329 10331 10333 10335 10334 10336 10340 10342 10344 10349 10355 10360 10361 10362 10368 10376 10382 10389 10400 10414 10431 10448 10459 10464 10477 10497 10510 10519 10525 10528 10531 10538 10548 10557 10568 10580 10590 10598 10605 10611 10617 10625 10632 10638 10642 10645 10649 10654 10659 10663 10664 10663 10666 10674 10680 10685 10690 10694 10695 10696 10697 10698 10700 10702 10705 10707 10709 10710 10711 10711 10711 10711 10711 10711 10711 10711 10711 10711
10330 10329 10328 10326 10325 10324 10323 10324 10324 10325 10327 10328 10330 10332 10332 10333 10336 10343 10348 10350 10350 10356 10367 10374 10380 10387 10393 10404 10423 10441 10450 10452 10463 10483 10497 10506 10512 10513 10517 10526 10537 10548 10560 10574 10585 10594 10600 10607 10614 10622 10629 10634 10637 10641 10645 10650 10654 10655 10655 10657 10663 10670 10675 10681 10686 10689 10690 10692 10693 10694 10696 10698 10701 10703 10705 10706 10706 10706 10706 10706 10706 10707 10706 10706 10706 10706
10327 10325 10324 10323 10322 10321 10320 10319 10319 10320 10321 10322 10324 10326 10325 10326 10331 10337 10339 10340 10345 10355 10363 10367 10374 10379 10384 10397 10415 10431 10438 10440 10451 10471 10483 10492 10498 10501 10506 10517 10530 10543 10557 10570 10582 10589 10596 10603 10611 10619 10625 10630 10633 10636 10640 10643 10645 10646 10649 10655 10661 10667 10672 10677 10681 10684 10687 10688 10688 10689 10691 10694 10697 10699 10700 10701 10701 10701 10701 10701 10702 10702 10702 10702 10702 10702
10324 10322 10321 10320 10318 10317 10317 10316 10316 10316 10316 10317 10318 10320 10320 10323 10327 10329 10331 10334 10341 10350 10354 10359 10367 10371 10377 10392 10407 10418 10422 10424 10437 10457 10469 10477 10484 10488 10497 10510 10525 10540 10554 10567 10578 10586 10593 10599 10607 10615 10621 10625 10627 10630 10634 10636 10638 10642 10648 10654 10659 10663 10669 10674 10678 10681 10682 10682 10683 10685 10688 10690 10692 10694 10695 10696 10696 10696 10697 10697 10697 10697 10697 10697 10697 10698
10321 10319 10318 10317 10315 10314 10313 10313 10312 10312 10312 10312 10313 10315 10316 10319 10322 10324 10326 10331 10337 10343 10348 10355 10362 10365 10374 10388 10398 10406 10411 10415 10427 10445 10457 10464 10470 10477 10489 10504 10520 10536 10549 10562 10572 10581 10588 10595 10602 10609 10614 10619 10621 10624 10627 10630 10634 10641 10647 10652 10656 10661 10667 10671 10674 10675 10676 10676 10678 10681 10684 10686 10688 10690 10690 10691 10691 10692 10692 10692 10692 10693 10693 10693 10693 10694
10320 10317 10316 10314 10313 10312 10311 10310 10309 10309 10309 10309 10310 10311 10313 10315 10318 10320 10323 10328 10333 10339 10345 10351 10355 10359 10371 10383 10391 10399 10405 10410 10420 10435 10446 10454 10461 10471 10484 10500 10516 10530 10542 10555 10565 10574 10582 10589 10596 10602 10607 10611 10614 10617 10621 10626 10632 10638 10644 10649 10654 10659 10663 10666 10668 10669 10670 10672 10675 10677 10680 10682 10684 10685 10685 10686 10686 10687 10688 10688 10688 10689 10689 10689 10690 10691
10319 10316 10314 10313 10311 10310 10309 10308 10307 10306 10306 10306 10307 10308 10310 10312 10314 10316 10320 10325 10330 10336 10341 10345 10350 10357 10368 10377 10383 10391 10398 10404 10414 10428 10439 10446 10455 10467 10482 10498 10513 10524 10536 10549 10560 10569 10576 10583 10590 10595 10600 10605 10610 10614 10618 10623 10630 10636 10642 10647 10651 10656 10659 10661 10663 10664 10665 10668 10671 10673 10675 10678 10680 10680 10680 10681 10682 10683 10683 10684 10684 10684 10684 10685 10686 10687
10318 10316 10314 10312 10310 10309 10307 10306 10305 10305 10304 10304 10305 10306 10308 10310 10312 10314 10318 10322 10327 10332 10336 10342 10348 10355 10364 10370 10374 10381 10390 10399 10410 10424 10435 10444 10454 10466 10481 10497 10509 10520 10532 10545 10555 10563 10571 10578 10584 10589 10594 10601 10607 10611 10614 10620 10627 10633 10638 10642 10647 10652 10654 10656 10657 10659 10662 10665 10667 10669 10672 10674 10675 10675 10676 10677 10677 10678 10679 10679 10680 10679 10680 10681 10682 10682
10318 10316 10313 10311 10309 10308 10306 10305 10304 10304 10303 10303 10304 10305 10306 10308 10311 10314 10317 10320 10324 10328 10334 10342 10349 10355 10361 10363 10364 10371 10381 10392 10405 10418 10430 10442 10454 10466 10480 10494 10506 10516 10528 10540 10550 10558 10566 10571 10576 10582 10589 10596 10602 10606 10610 10616 10622 10628 10633 10638 10643 10646 10648 10651 10653 10655 10658 10660 10662 10665 10668 10669 10670 10671 10671 10672 10673 10674 10674 10675 10675 10676 10677 10677 10678 10678
10318 10316 10314 10312 10310 10308 10306 10305 10304 10303 10303 10303 10303 10304 10305 10307 10309 10312 10315 10317 10321 10326 10333 10341 10347 10352 10355 10354 10355 10365 10375 10386 10399 10411 10422 10436 10449 10462 10476 10490 10502 10512 10523 10534 10545 10553 10559 10564 10571 10578 10585 10591 10597 10601 10606 10612 10618 10623 10628 10634 10638 10641 10643 10646 10648 10651 10654 10656 10658 10661 10663 10665 10666 10666 10667 10668 10669 10669 10670 10671 10672 10672 10673 10673 10674 10674
10319 10317 10315 10312 10310 10308 10306 10305 10304 10303 10303 10303 10303 10304 10305 10306 10308 10310 10312 10315 10318 10323 10329 10335 10340 10345 10347 10346 10352 10363 10372 10379 10390 10404 10419 10433 10445 10458 10472 10486 10498 10507 10517 10529 10538 10546 10552 10559 10566 10574 10580 10586 10592 10597 10602 10607 10613 10618 10623 10628 10633 10636 10639 10641 10644 10647 10649 10651 10654 10657 10659 10660 10661 10662 10663 10664 10664 10665 10666 10667 10668 10668 10669 10669 10670 10670
10320 10318 10316 10313 10310 10308 10306 10305 10304 10304 10304 10304 10303 10304 10305 10306 10307 10309 10312 10315 10319 10322 10326 10329 10333 10338 10342 10347 10355 10364 10371 10380 10390 10403 10416 10430 10443 10456 10470 10482 10493 10502 10512 10523 10532 10539 10546 10554 10563 10570 10576 10582 10587 10592 10597 10602 10608 10613 10618 10623 10628 10631 10634 10637 10640 10643 10645 10647 10650 10652 10654 10656 10657 10658 10659 10659 10660 10661 10662 10663 10664 10664 10665 10666 10666 10666
10322 10319 10317 10314 10311 10309 10308 10306 10306 10305 10305 10304 10304 10304 10306 10308 10309 10311 10314 10317 10319 10322 10325 10329 10334 10338 10343 10350 10358 10365 10373 10383 10392 10401 10413 10426 10440 10454 10466 10477 10488 10497 10508 10518 10526 10534 10542 10551 10559 10566 10571 10577 10583 10588 10593 10598 10603 10608 10614 10619 10623 10626 10629 10632 10635 10638 10640 10643 10645 10647 10649 10652 10653 10654 10654 10655 10656 10657 10658 10659 10660 10661 10661 10662 10662 10662
10324 10321 10318 10316 10314 10312 10310 10308 10308 10307 10306 10305 10305 10305 10307 10309 10311 10313 10315 10318 10321 10324 10329 10335 10339 10342 10345 10350 10356 10364 10373 10382 10392 10403 10414 10425 10437 10450 10461 10471 10483 10493 10503 10512 10521 10529 10538 10547 10555 10561 10566 10572 10578 10583 10589 10594 10600 10605 10610 10615 10619 10622 10624 10628 10631 10633 10636 10638 10640 10642 10645 10647 10649 10649 10649 10650 10651 10653 10654 10655 10656 10657 10657 10658 10658 10658
10326 10323 10320 10318 10316 10314 10312 10311 10310 10309 10308 10307 10307 10307 10309 10311 10313 10315 10317 10320 10323 10328 10333 10338 10342 10345 10347 10350 10356 10363 10371 10380 10392 10406 10418 10427 10437 10446 10456 10466 10478 10489 10498 10507 10516 10525 10533 10542 10549 10555 10560 10566 10573 10579 10584 10591 10596 10601 10606 10611 10614 10617 10620 10623 10627 10629 10631 10634 10635 10638 10641 10643 10644 10645 10645 10646 10647 10649 10651 10651 10652 10653 10653 10653 10653 10653
10328 10325 10323 10321 10318 10316 10315 10314 10313 10312 10311 10311 10311 10311 10312 10314 10316 10318 10320 10322 10325 10329 10333 10337 10341 10343 10346 10350 10356 10363 10371 10381 10393 10406 10417 10427 10435 10443 10451 10461 10473 10483 10493 10501 10510 10519 10528 10535 10541 10548 10555 10562 10568 10574 10580 10586 10592 10597 10602 10606 10610 10612 10615 10618 10622 10624 10627 10628 10631 10634 10636 10639 10640 10640 10641 10642 10643 10645 10646 10647 10648 10648 10648 10648 10648 10648
10330 10328 10326 10324 10322 10320 10318 10317 10316 10315 10314 10314 10314 10315 10315 10317 10318 10320 10322 10325 10327 10330 10333 10336 10339 10342 10346 10350 10356 10364 10373 10383 10393 10403 10412 10422 10430 10438 10446 10456 10468 10478 10487 10496 10505 10514 10522 10529 10536 10544 10552 10558 10563 10569 10576 10582 10587 10593 10598 10602 10605 10607 10610 10614 10617 10620 10622 10624 10627 10630 10632 10634 10635 10635 10636 10637 10639 10640 10642 10642 10643 10643 10643 10643 10643 10643
10333 10330 10329 10327 10325 10323 10321 10320 10319 10318 10316 10316 10316 10316 10317 10319 10321 10323 10324 10326 10329 10332 10335 10338 10341 10345 10349 10352 10358 10366 10375 10384 10393 10401 10409 10417 10425 10433 10443 10453 10464 10474 10482 10491 10499 10507 10515 10523 10531 10539 10546 10552 10557 10564 10570 10576 10583 10589 10593 10596 10599 10602 10606 10610 10613 10616 10618 10621 10623 10625 10627 10629 10630 10630 10631 10633 10635 10636 10637 10638 10638 10638 10638 10638 10638 10638
10335 10332 10331 10329 10328 10326 10325 10323 10322 10321 10320 10319 10319 10319 10319 10321 10323 10325 10327 10329 10332 10334 10337 10340 10343 10346 10350 10354 10359 10367 10375 10383 10391 10399 10406 10413 10420 10430 10440 10450 10460 10470 10479 10487 10495 10502 10509 10517 10524 10532 10539 10545 10552 10558 10564 10571 10578 10584 10588 10591 10595 10599 10603 10606 10609 10612 10615 10617 10619 10620 10622 10624 10625 10625 10627 10629 10630 10631 10632 10632 10633 10633 10633 10633 10633 10633
10337 10334 10333 10331 10330 10329 10328 10327 10325 10324 10323 10322 10322 10323 10323 10323 10327 10329 10330 10332 10334 10336 10339 10342 10345 10349 10352 10357 10362 10368 10374 10382 10389 10396 10403 10411 10420 10429 10438 10448 10458 10467 10475 10483 10490 10498 10506 10512 10519 10527 10535 10542 10549 10556 10564 10571 10576 10580 10585 10589 10593 10597 10600 10603 10605 10609 10611 10613 10615 10616 10618 10620 10620 10621 10622 10624 10626 10626 10627 10627 10628 10628 10628 10628 10628 10628
10339 10336 10334 10333 10333 10332 10332 10331 10328 10327 10326 10325 10325 10326 10326 10328 10331 10333 10334 10335 10336 10338 10340 10344 10348 10353 10357 10361 10366 10370 10375 10380 10387 10394 10402 10411 10421 10431 10439 10447 10456 10463 10470 10479 10488 10496 10503 10509 10516 10523 10531 10538 10547 10556 10564 10569 10573 10578 10582 10586 10590 10594 10597 10599 10602 10605 10607 10609 10611 10612 10614 10615 10615 10616 10618 10619 10621 10621 10621 10622 10622 10623 10623 10623 10623 10623
10341 10338 10336 10335 10335 10335 10335 10334 10331 10330 10329 10328 10328 10329 10330 10331 10334 10336 10336 10336 10338 10340 10342 10344 10349 10356 10361 10363 10366 10371 10375 10381 10387 10395 10402 10411 10420 10429 10437 10445 10452 10459 10467 10475 10484 10492 10500 10507 10514 10521 10529 10537 10546 10554 10559 10564 10569 10575 10579 10584 10588 10591 10594 10596 10599 10601 10603 10605 10606 10608 10609 10610 10611 10612 10613 10614 10615 10616 10616 10617 10617 10618 10617 10617 10618 10618
10342 10340 10338 10338 10338 10338 10338 10336 10334 10332 10332 10331 10332 10332 10333 10334 10336 10337 10338 10339 10341 10343 10345 10346 10350 10356 10362 10365 10368 10371 10376 10382 10389 10396 10403 10409 10417 10426 10434 10442 10450 10457 10465 10472 10480 10489 10497 10504 10513 10521 10530 10537 10545 10550 10556 10561 10568 10573 10578 10583 10586 10589 10591 10593 10595 10597 10599 10600 10602 10603 10605 10606 10606 10607 10608 10609 10610 10611 10611 10612 10612 10612 10612 10612 10613 10613
10344 10342 10341 10340 10340 10340 10340 10338 10336 10335 10335 10335 10335 10336 10337 10337 10338 10339 10340 10342 10343 10345 10347 10351 10354 10358 10362 10367 10371 10374 10378 10384 10389 10396 10402 10409 10416 10423 10431 10439 10446 10454 10463 10470 10478 10486 10494 10502 10511 10520 10529 10537 10543 10548 10554 10560 10566 10571 10575 10580 10583 10586 10589 10590 10592 10593 10595 10596 10598 10599 10601 10602 10602 10602 10603 10605 10606 10606 10606 10607 10607 10607 10608 10608 10607 10607
10346 10344 10343 10341 10341 10341 10342 10341 10340 10339 10339 10339 10339 10339 10339 10340 10340 10342 10343 10344 10345 10347 10349 10354 10358 10361 10364 10368 10371 10374 10379 10384 10389 10395 10402 10409 10416 10423 10430 10438 10445 10453 10461 10469 10477 10484 10492 10501 10511 10520 10528 10534 10539 10545 10551 10556 10562 10567 10571 10576 10580 10584 10586 10587 10588 10590 10591 10593 10594 10595 10597 10597 10598 10598 10599 10600 10601 10601 10601 10602 10602 10603 10603 10603 10602 10601
10346 10346 10344 10343 10342 10342 10343 10343 10343 10342 10342 10342 10342 10342 10343 10343 10344 10345 10346 10347 10348 10349 10352 10355 10359 10363 10366 10369 10372 10375 10379 10382 10387 10394 10401 10408 10415 10421 10428 10434 10440 10448 10458 10467 10475 10482 10491 10500 10509 10517 10522 10527 10533 10540 10547 10552 10558 10562 10567 10573 10578 10581 10583 10584 10585 10587 10588 10590 10591 10592 10593 10593 10593 10593 10594 10595 10596 10596 10596 10597 10598 10598 10600 10599 10597 10596
10347 10347 10346 10345 10344 10344 10344 10345 10345 10345 10345 10344 10345 10346 10347 10347 10348 10349 10350 10351 10351 10353 10355 10358 10361 10364 10367 10370 10373 10376 10379 10383 10388 10394 10400 10407 10413 10420 10425 10430 10436 10445 10454 10463 10471 10479 10488 10497 10505 10512 10517 10523 10530 10538 10544 10550 10555 10560 10565 10571 10575 10578 10579 10581 10583 10584 10586 10586 10587 10588 10588 10588 10588 10589 10590 10591 10591 10591 10591 10592 10593 10595 10596 10594 10592 10592
10347 10347 10347 10347 10346 10346 10346 10346 10347 10347 10347 10347 10347 10349 10350 10350 10351 10352 10352 10354 10355 10357 10359 10361 10364 10367 10369 10372 10375 10378 10381 10386 10391 10395 10400 10406 10412 10417 10423 10430 10437 10445 10453 10460 10468 10476 10485 10493 10499 10505 10512 10519 10527 10534 10541 10548 10553 10558 10564 10568 10572 10576 10579 10579 10579 10581 10582 10583 10584 10584 10584 10584 10584 10585 10586 10587 10587 10586 10587 10588 10589 10590 10590 10590 10589 10589
10346 10347 10348 10348 10347 10347 10348 10348 10348 10349 10349 10349 10349 10349 10351 10352 10353 10354 10355 10357 10358 10360 10362 10365 10367 10370 10372 10374 10377 10380 10383 10387 10392 10396 10401 10406 10411 10416 10422 10430 10437 10445 10451 10458 10466 10473 10481 10488 10494 10501 10509 10517 10525 10532 10539 10545 10551 10556 10561 10564 10569 10575 10577 10575 10575 10578 10579 10580 10580 10580 10580 10580 10580 10581 10582 10583 10581 10581 10583 10584 10585 10585 10585 10585 10585 10584
10346 10347 10349 10349 10348 10348 10349 10349 10349 10349 10349 10349 10350 10351 10352 10354 10355 10356 10358 10360 10361 10363 10366 10368 10369 10371 10373 10375 10378 10381 10385 10389 10393 10397 10402 10407 10412 10418 10424 10431 10438 10444 10451 10458 10465 10472 10479 10485 10492 10500 10508 10516 10524 10531 10537 10542 10546 10550 10554 10559 10565 10571 10572 10572 10576 10579 10579 10577 10576 10576 10575 10576 10576 10576 10577 10577 10577 10577 10579 10581 10580 10581 10581 10581 10580 10580
10346 10347 10348 10349 10348 10348 10349 10349 10349 10349 10350 10350 10351 10352 10353 10355 10356 10358 10361 10362 10364 10365 10367 10369 10371 10373 10375 10377 10380 10383 10387 10391 10395 10398 10403 10408 10413 10420 10426 10433 10440 10446 10452 10459 10466 10472 10478 10485 10492 10500 10507 10514 10521 10528 10534 10539 10542 10544 10548 10553 10559 10565 10569 10571 10574 10577 10578 10576 10573 10571 10571 10571 10571 10571 10572 10573 10573 10573 10575 10576 10576 10576 10576 10577 10577 10577
10346 10346 10347 10348 10348 10347 10348 10349 10350 10351 10352 10352 10353 10353 10354 10355 10357 10359 10362 10364 10365 10366 10368 10370 10373 10375 10378 10381 10383 10386 10389 10393 10396 10400 10404 10409 10415 10421 10427 10434 10440 10446 10452 10458 10465 10472 10479 10486 10492 10498 10504 10511 10517 10523 10529 10534 10537 10540 10543 10545 10550 10557 10563 10567 10568 10570 10572 10571 10567 10566 10566 10567 10566 10567 10568 10569 10569 10569 10570 10570 10571 10571 10572 10572 10573 10573
10344 10345 10345 10346 10346 10347 10348 10349 10350 10351 10352 10353 10354 10355 10355 10356 10358 10360 10362 10364 10365 10367 10369 10372 10374 10377 10381 10383 10385 10388 10392 10395 10398 10402 10407 10411 10416 10422 10427 10433 10439 10445 10451 10457 10464 10470 10478 10485 10491 10496 10502 10508 10514 10520 10525 10529 10531 10534 10536 10537 10540 10545 10551 10556 10557 10557 10558 10559 10560 10561 10562 10562 10562 10562 10563 10564 10564 10564 10564 10564 10566 10567 10568 10568 10568 10568
10342 10342 10342 10343 10345 10347 10348 10348 10349 10350 10351 10353 10354 10355 10356 10357 10358 10360 10362 10363 10364 10367 10370 10373 10376 10379 10383 10386 10388 10391 10395 10399 10402 10406 10410 10414 10419 10423 10428 10433 10438 10445 10451 10457 10462 10468 10475 10482 10488 10493 10499 10505 10510 10516 10520 10523 10525 10527 10530 10533 10536 10539 10543 10546 10548 10549 10551 10553 10555 10557 10557 10557 10558 10558 10559 10559 10559 10559 10559 10559 10560 10561 10562 10563 10564 10563
10340 10339 10339 10341 10343 10345 10347 10347 10348 10349 10350 10351 10353 10355 10356 10357 10358 10360 10361 10362 10364 10367 10370 10374 10378 10381 10386 10390 10392 10395 10399 10404 10407 10410 10413 10417 10421 10425 10430 10435 10440 10445 10451 10455 10461 10466 10472 10477 10483 10489 10495 10501 10505 10510 10514 10516 10519 10521 10525 10530 10534 10537 10539 10540 10542 10544 10546 10548 10550 10552 10552 10553 10553 10554 10554 10554 10554 10554 10555 10555 10555 10557 10558 10558 10558 10557
10338 10337 10338 10339 10341 10343 10344 10345 10347 10348 10349 10350 10352 10353 10355 10357 10358 10359 10360 10362 10365 10368 10371 10374 10378 10383 10387 10391 10395 10400 10404 10407 10409 10410 10413 10418 10422 10426 10431 10435 10440 10445 10449 10454 10459 10463 10468 10474 10480 10486 10491 10496 10500 10504 10508 10511 10514 10517 10520 10524 10527 10529 10532 10534 10536 10539 10541 10542 10544 10547 10548 10548 10549 10548 10548 10548 10549 10549 10550 10551 10551 10552 10553 10553 10552 10552